Location: Crescent
(42.8242°N, 73.7329°W)
Time: 17:36:25
(UTC+00:00)

SR - Pass Details

Date: 25 February 2026
Orbit: 572 x 848 km, 66.7° (Epoch: 8 March)

Event Time Altitude Azimuth Distance (km) Brightness Sun altitude
Rises 16:44:07 0° 325° (NW) 3,126 ? 38.0°
Reaches altitude 10° 16:46:25 10° 321° (NW) 2,245 ? 38.0°
Maximum altitude 16:51:29 58° 244° (WSW) 900 ? 38.1°
Drops below altitude 10° 16:56:53 10° 166° (SSE) 2,392 ? 38.2°
Sets 16:59:25 0° 162° (SSE) 3,348 ? 38.2°
